Location: Penton Mewsey
(51.2167°N, 1.5167°W)
Time: 17:08:45
(UTC+00:00)

Envisat - Pass Details

Date: 13 March 2021
Orbit: 764 x 766 km, 98.1° (Epoch: 21 April)

Event Time Altitude Azimuth Distance (km) Brightness Sun altitude
Rises 05:24:54 0° 18° (NNE) 3,247 6.6 -10.1°
Reaches altitude 10° 05:27:19 10° 24° (NNE) 2,315 5.9 -9.7°
Maximum altitude 05:32:14 47° 99° (E) 1,005 4.2 -9.0°
Drops below altitude 10° 05:37:07 10° 173° (S) 2,297 5.5 -8.2°
Sets 05:39:30 0° 179° (S) 3,218 6.2 -7.8°
